TimeCST,TemperatureF,Dew PointF,Humidity,Sea Level PressureIn,VisibilityMPH,Wind Direction,Wind SpeedMPH,Gust SpeedMPH,PrecipitationIn,Events,Conditions,WindDirDegrees,DateUTC
12:53 AM,19.9,16.0,85,29.95,8.0,SSE,6.9,-,N/A,,Mostly Cloudy,160,2013-02-05 06:53:00
1:53 AM,19.9,17.1,89,29.95,8.0,South,5.8,-,N/A,,Overcast,190,2013-02-05 07:53:00
2:53 AM,21.0,17.1,85,29.94,8.0,Calm,Calm,-,N/A,,Overcast,0,2013-02-05 08:53:00
3:53 AM,21.0,17.1,85,29.90,8.0,South,8.1,-,N/A,,Overcast,190,2013-02-05 09:53:00
4:53 AM,21.9,18.0,85,29.88,8.0,SSW,10.4,-,N/A,,Overcast,200,2013-02-05 10:53:00
5:53 AM,21.9,17.1,82,29.87,8.0,SSW,9.2,-,N/A,,Scattered Clouds,210,2013-02-05 11:53:00
6:53 AM,21.9,18.0,85,29.86,8.0,SW,9.2,-,N/A,,Clear,220,2013-02-05 12:53:00
7:53 AM,24.1,19.0,81,29.87,7.0,SSW,10.4,-,N/A,,Clear,210,2013-02-05 13:53:00
8:53 AM,27.0,21.0,78,29.86,8.0,WSW,15.0,-,N/A,,Overcast,240,2013-02-05 14:53:00
9:53 AM,30.0,23.0,75,29.86,9.0,West,12.7,-,N/A,,Partly Cloudy,260,2013-02-05 15:53:00
10:53 AM,34.0,25.0,70,29.88,10.0,West,15.0,-,N/A,,Clear,270,2013-02-05 16:53:00
11:53 AM,37.9,27.0,65,29.89,10.0,West,16.1,-,N/A,,Clear,280,2013-02-05 17:53:00
12:53 PM,39.0,28.9,67,29.92,10.0,NW,17.3,-,N/A,,Partly Cloudy,310,2013-02-05 18:53:00
1:05 PM,37.4,28.4,70,29.90,10.0,NW,19.6,28.8,N/A,,Mostly Cloudy,310,2013-02-05 19:05:00
1:50 PM,39.2,30.2,70,29.90,10.0,WNW,15.0,20.7,N/A,,Scattered Clouds,300,2013-02-05 19:50:00
1:53 PM,39.0,30.0,70,29.94,10.0,WNW,13.8,-,N/A,,Partly Cloudy,300,2013-02-05 19:53:00
2:53 PM,39.0,30.9,73,29.96,10.0,NW,13.8,-,N/A,,Scattered Clouds,310,2013-02-05 20:53:00
3:01 PM,39.2,30.2,70,29.94,10.0,NW,12.7,-,N/A,,Mostly Cloudy,320,2013-02-05 21:01:00
3:38 PM,39.2,30.2,70,29.95,10.0,NW,17.3,-,N/A,,Partly Cloudy,320,2013-02-05 21:38:00
3:53 PM,39.0,30.9,73,29.99,10.0,NNW,11.5,-,N/A,,Partly Cloudy,340,2013-02-05 21:53:00
4:53 PM,37.0,30.0,76,30.02,10.0,NNW,13.8,-,N/A,,Overcast,330,2013-02-05 22:53:00
5:53 PM,36.0,30.0,79,30.04,10.0,NNW,8.1,-,N/A,,Overcast,330,2013-02-05 23:53:00
6:53 PM,34.0,28.9,82,30.05,10.0,WNW,4.6,-,N/A,,Scattered Clouds,290,2013-02-06 00:53:00
7:53 PM,30.9,27.0,85,30.07,10.0,WSW,5.8,-,N/A,,Clear,240,2013-02-06 01:53:00
8:53 PM,32.0,28.0,85,30.09,10.0,WSW,3.5,-,N/A,,Clear,250,2013-02-06 02:53:00
9:53 PM,30.0,26.1,85,30.11,8.0,WNW,4.6,-,N/A,,Clear,290,2013-02-06 03:53:00
10:53 PM,28.9,26.1,89,30.12,8.0,West,4.6,-,N/A,,Clear,280,2013-02-06 04:53:00
11:53 PM,28.0,25.0,88,30.13,7.0,North,6.9,-,N/A,,Clear,10,2013-02-06 05:53:00